Regional Weather Roundup
Issued by NWS Burlington, VT

Home | Current Version | Previous Version | Text Only | Print | Product List | Glossary On
Versions: 1 2 3 4 5 6 7 8 9 10 11 12 13 14 15 16 17 18 19 20 21 22 23 24 25 26 27 28 29 30 31 32 33 34 35 36 37 38 39 40 41 42 43 44 45 46 47 48 49 50
000
ASUS41 KBTV 011730
RWRBTV
VERMONT REGIONAL WEATHER ROUNDUP
NATIONAL WEATHER SERVICE BURLINGTON VT
100 PM EDT WED APR 01 2015

NOTE: "FAIR" INDICATES FEW OR NO CLOUDS BELOW 12,000 FEET WITH NO
SIGNIFICANT WEATHER AND/OR OBSTRUCTIONS TO VISIBILITY.

* THESE REPORTS ARE NOT UNDER NWS QUALITY CONTROL AND/OR DO NOT
  REPORT WEATHER SUCH AS PRECIPITATION AND FOG.

VTZ001>019-011800-
_____VERMONT_____


CITY           SKY/WX    TMP DP  RH WIND       PRES   REMARKS
BURLINGTON     MOSUNNY   33   4  29 N10G20    30.10S
MONTPELIER     SUNNY     29   6  38 NW13G18   30.06R WCI  19
MORRISVILLE    SUNNY     31   7  36 N15G22    30.07R
ST. JOHNSBURY*   N/A     33   3  28 MISG      30.00F
LYNDONVILLE*     N/A     30   0  27 W13       30.01F WCI  20
MIDDLEBURY*      N/A     34   6  30 N12       30.08S
RUTLAND*       SUNNY     34   7  32 N13G21    30.06R
SPRINGFIELD    SUNNY     36   8  31 W12       30.02R
HIGHGATE*        N/A     31   7  37 W5        30.12S
NEWPORT*         N/A     28   3  34 W14       30.04S WCI  16
BENNINGTON     SUNNY     38   9  30 N12G17    30.04R
SUTTON*          N/A     27 N/A N/A MISG        N/A
GALLUP MILLS*    N/A     30 N/A N/A MISG        N/A
MT. MANSFIELD*   N/A     18 N/A N/A CALM        N/A

_____LAKE CHAMPLAIN_____


CITY           SKY/WX    TMP DP  RH WIND       PRES   REMARKS
BURTON ISLAND*   N/A     32   9  37 N3          N/A
COLCHESTER RF*   N/A     30  10  43 E16         N/A  WCI  19
DIAMOND ISL*     N/A     30   7  37 N17         N/A  WCI  18

$$

NYZ007-026>031-035-052-083-011800-
_____NORTHERN NEW YORK_____


CITY           SKY/WX    TMP DP  RH WIND       PRES   REMARKS
PLATTSBURGH    SUNNY     31   8  38 E12       30.10S
SARANAC LAKE   SUNNY     29  -1  27 VRB6      30.01S
MASSENA        SUNNY     32   7  35 W12       30.16F
OGDENSBURG*    SUNNY     37   9  30 W7        30.15S
POTSDAM*       SUNNY     32   9  37 NW9       30.14S
STARK FALLS*     N/A     28 N/A N/A NW12        N/A  WCI  18
WATERTOWN      SUNNY     36   9  32 VRB3      30.17S
FT DRUM        SUNNY     31   3  30 VRB2      30.13S
ALBANY         MOSUNNY   43   4  19 NW10      30.07S
GLENS FALLS    SUNNY     36  11  35 E10       30.07S

$$
NHZ002-005-011-011800-
_____NEW HAMPSHIRE_____


CITY           SKY/WX    TMP DP  RH WIND       PRES   REMARKS
LEBANON        SUNNY     39   9  29 N15G23    30.01S
KEENE          SUNNY     39   5  24 NW8G21    30.01S
MT WASHINGTON  PTSUNNY    1  -6  71 NW52        N/A  WCI -30
PLYMOUTH         N/A     35  13  39 W14G20    30.01S
WHITEFIELD     SUNNY     32   4  30 NW14G21   29.99R

$$

_____REGIONAL QUEBEC LOCATIONS_____


CITY           SKY/WX    TMP DP  RH WIND       PRES   REMARKS
MONTREAL       MOSUNNY   30   3  31 W10G17    30.13F
QUEBEC CITY    MOSUNNY   25   0  33 W10       30.01F WCI  15
SHERBROOKE     SUNNY     25   3  39 W15G21    30.02F WCI  12

_____REGIONAL ONTARIO LOCATIONS_____


CITY           SKY/WX    TMP DP  RH WIND       PRES   REMARKS
OTTAWA         MOSUNNY   32   5  32 NW8       30.15S

______KEY______
VSB  - VISIBILITY IN MILES
WCI  - WIND CHILL INDEX
HX   - HEAT INDEX
$$
NNNN


USA.gov is the U.S. government's official web portal to all federal, state and local government web resources and services.